Find Starlink 30885

NORAD ID: 58361 Int'l Des: 2023-177 Owner: SPXS Country: US Constellation: starlink operational
LEOCIRCULAR

当前视图

正在加载3D地球...

About Starlink 30885

Starlink 30885 (NORAD 58361) is a starlink constellation satellite (v2 mini) launched Nov 18, 2023 by SPXS of US. It operates in LEO, CIRCULAR orbit with a mass of 730.00 kg.

关于 Starlink 30885

正在加载描述...

即将过境

Passes for default location (London). Set your location on the main map for personalized predictions.

高度历史

Loading altitude history...

两行轨道根数

1 58361U 23177L 26193.47959352 .00003133 00000-0 12333-3 0 9993
2 58361 43.0038 5.7570 0001271 250.1766 109.8949 15.27576212147320
Epoch: Jul 12, 2026 • Age: 9 hours

当前状态

高度 493.0 km
远地点 / 近地点 N/A
速度 7.62 km/s
星下点 -36.28°S, 71.37°E
发射日期 Nov 18, 2023
运行时间 2.6 years
类型 internet

技术详情

分类 Payload
质量 730.00 kg
干质量 700.00 kg
总质量 730.00 kg
长度 0.30 m
直径 4.10 m
跨度 29.00 m
形状 Box + pan
制造商 SPXS
平台类型 Starlink V2M
阶段状态 In Orbit
所有者/国家 SPXS/US

Most Searched